date,time,SUV Intensity [MED/Hr],UV Index,Daily total [MED],Since Last [MED]
20/09/2023,00:01:30,0.001,0.0,0.0,0.0
20/09/2023,00:02:29,0.001,0.0,0.0,0.0
20/09/2023,00:03:27,-0.000,0.0,0.0,0.0
20/09/2023,00:04:27,0.001,0.0,0.0,0.0
20/09/2023,00:05:29,-0.001,0.0,0.0,0.0
20/09/2023,00:06:29,-0.000,0.0,0.0,0.0
20/09/2023,00:07:29,0.000,0.0,0.0,0.0
20/09/2023,00:08:29,0.000,0.0,0.0,0.0
20/09/2023,00:09:29,-0.001,0.0,0.0,0.0
20/09/2023,00:10:29,0.000,0.0,0.0,0.0
20/09/2023,00:11:29,-0.000,0.0,0.0,0.0
20/09/2023,00:12:29,0.001,0.0,0.0,0.0
20/09/2023,00:13:29,0.000,0.0,0.0,0.0
20/09/2023,00:14:29,0.001,0.0,0.0,0.0
20/09/2023,00:15:29,0.000,0.0,0.0,0.0
20/09/2023,00:16:29,0.001,0.0,0.0,0.0
20/09/2023,00:17:29,0.000,0.0,0.0,0.0
20/09/2023,00:18:29,-0.000,0.0,0.0,0.0
20/09/2023,00:19:29,0.001,0.0,0.0,0.0
20/09/2023,00:20:29,0.000,0.0,0.0,0.0
20/09/2023,00:21:29,0.000,0.0,0.0,0.0
20/09/2023,00:22:29,-0.000,0.0,0.0,0.0
20/09/2023,00:23:29,0.000,0.0,0.0,0.0
20/09/2023,00:24:29,0.000,0.0,0.0,0.0
20/09/2023,00:25:27,0.000,0.0,0.0,0.0
20/09/2023,00:26:29,0.000,0.0,0.0,0.0
20/09/2023,00:27:30,0.000,0.0,0.0,0.0
20/09/2023,00:28:29,0.000,0.0,0.0,0.0
20/09/2023,00:29:29,-0.000,0.0,0.0,0.0
20/09/2023,00:30:29,0.000,0.0,0.0,0.0
20/09/2023,00:31:29,0.000,0.0,0.0,0.0
20/09/2023,00:32:30,0.000,0.0,0.0,0.0
20/09/2023,00:33:29,-0.000,0.0,0.0,0.0
20/09/2023,00:34:29,-0.000,0.0,0.0,0.0
20/09/2023,00:35:29,0.000,0.0,0.0,0.0
20/09/2023,00:36:29,-0.001,0.0,0.0,0.0
20/09/2023,00:37:29,-0.000,0.0,0.0,0.0
20/09/2023,00:38:29,0.000,0.0,0.0,0.0
20/09/2023,00:39:29,0.000,0.0,0.0,0.0
20/09/2023,00:40:29,0.001,0.0,0.0,0.0
20/09/2023,00:41:29,-0.001,0.0,0.0,0.0
20/09/2023,00:42:30,-0.000,0.0,0.0,0.0
20/09/2023,00:43:29,-0.000,0.0,0.0,0.0
20/09/2023,00:44:29,-0.000,0.0,0.0,0.0
20/09/2023,00:45:29,0.000,0.0,0.0,0.0
20/09/2023,00:46:29,-0.000,0.0,0.0,0.0
20/09/2023,00:47:29,0.000,0.0,0.0,0.0
20/09/2023,00:48:58,-0.000,0.0,0.0,0.0
20/09/2023,00:50:29,0.001,0.0,0.0,0.0
20/09/2023,00:51:29,0.000,0.0,0.0,0.0
20/09/2023,00:52:29,-0.000,0.0,0.0,0.0
20/09/2023,00:53:30,0.000,0.0,0.0,0.0
20/09/2023,00:54:29,0.000,0.0,0.0,0.0
20/09/2023,00:55:29,-0.000,0.0,0.0,0.0
20/09/2023,00:56:30,0.000,0.0,0.0,0.0
20/09/2023,00:57:29,0.000,0.0,0.0,0.0
20/09/2023,00:58:29,0.000,0.0,0.0,0.0
20/09/2023,00:59:29,0.001,0.0,0.0,0.0
20/09/2023,01:00:29,0.001,0.0,0.0,0.0
20/09/2023,01:01:30,-0.000,0.0,0.0,0.0
20/09/2023,01:02:29,-0.001,0.0,0.0,0.0
20/09/2023,01:03:30,0.000,0.0,0.0,0.0
20/09/2023,01:04:29,-0.000,0.0,0.0,0.0
20/09/2023,01:05:29,0.001,0.0,0.0,0.0
20/09/2023,01:06:29,0.000,0.0,0.0,0.0
20/09/2023,01:07:30,0.001,0.0,0.0,0.0
20/09/2023,01:08:29,-0.000,0.0,0.0,0.0
20/09/2023,01:09:29,0.000,0.0,0.0,0.0
20/09/2023,01:10:29,0.001,0.0,0.0,0.0
20/09/2023,01:11:29,0.000,0.0,0.0,0.0
20/09/2023,01:12:29,-0.001,0.0,0.0,0.0
20/09/2023,01:13:29,0.000,0.0,0.0,0.0
20/09/2023,01:14:29,-0.000,0.0,0.0,0.0
20/09/2023,01:15:29,0.000,0.0,0.0,0.0
20/09/2023,01:16:29,0.000,0.0,0.0,0.0
20/09/2023,01:17:30,-0.001,0.0,0.0,0.0
20/09/2023,01:18:29,-0.001,0.0,0.0,0.0
20/09/2023,01:19:29,-0.000,0.0,0.0,0.0
20/09/2023,01:20:30,0.000,0.0,0.0,0.0
20/09/2023,01:21:29,0.000,0.0,0.0,0.0
20/09/2023,01:22:29,0.000,0.0,0.0,0.0
20/09/2023,01:23:29,0.000,0.0,0.0,0.0
20/09/2023,01:24:27,0.001,0.0,0.0,0.0
20/09/2023,01:25:27,-0.000,0.0,0.0,0.0
20/09/2023,01:26:30,0.000,0.0,0.0,0.0
20/09/2023,01:27:29,0.000,0.0,0.0,0.0
20/09/2023,01:28:29,0.000,0.0,0.0,0.0
20/09/2023,01:29:29,0.000,0.0,0.0,0.0
20/09/2023,01:30:29,-0.001,0.0,0.0,0.0
20/09/2023,01:31:29,-0.000,0.0,0.0,0.0
20/09/2023,01:32:30,-0.000,0.0,0.0,0.0
20/09/2023,01:33:29,0.000,0.0,0.0,0.0
20/09/2023,01:34:29,0.000,0.0,0.0,0.0
20/09/2023,01:35:29,0.000,0.0,0.0,0.0
20/09/2023,01:36:30,0.000,0.0,0.0,0.0
20/09/2023,01:37:29,0.000,0.0,0.0,0.0
20/09/2023,01:38:30,-0.001,0.0,0.0,0.0
20/09/2023,01:39:29,-0.000,0.0,0.0,0.0
20/09/2023,01:40:30,0.000,0.0,0.0,0.0
20/09/2023,01:41:29,-0.001,0.0,0.0,0.0
20/09/2023,01:42:30,-0.001,0.0,0.0,0.0
20/09/2023,01:43:29,0.001,0.0,0.0,0.0
20/09/2023,01:44:29,-0.001,0.0,0.0,0.0
20/09/2023,01:45:30,0.000,0.0,0.0,0.0
20/09/2023,01:46:29,0.000,0.0,0.0,0.0
20/09/2023,01:47:29,0.000,0.0,0.0,0.0
20/09/2023,01:48:27,0.000,0.0,0.0,0.0
20/09/2023,01:49:27,0.000,0.0,0.0,0.0
20/09/2023,01:50:29,0.000,0.0,0.0,0.0
20/09/2023,01:51:30,0.000,0.0,0.0,0.0
20/09/2023,01:52:27,0.000,0.0,0.0,0.0
20/09/2023,01:53:28,0.000,0.0,0.0,0.0
20/09/2023,01:54:30,0.000,0.0,0.0,0.0
20/09/2023,01:55:29,0.000,0.0,0.0,0.0
20/09/2023,01:56:29,-0.000,0.0,0.0,0.0
20/09/2023,01:57:30,-0.001,0.0,0.0,0.0
20/09/2023,01:58:29,-0.000,0.0,0.0,0.0
20/09/2023,01:59:30,0.000,0.0,0.0,0.0
20/09/2023,02:00:29,0.000,0.0,0.0,0.0
20/09/2023,02:01:29,0.000,0.0,0.0,0.0
20/09/2023,02:02:29,0.000,0.0,0.0,0.0
20/09/2023,02:03:29,0.000,0.0,0.0,0.0
20/09/2023,02:04:29,0.001,0.0,0.0,0.0
20/09/2023,02:05:29,0.000,0.0,0.0,0.0
20/09/2023,02:06:30,0.000,0.0,0.0,0.0
20/09/2023,02:07:29,0.000,0.0,0.0,0.0
20/09/2023,02:08:29,-0.000,0.0,0.0,0.0
20/09/2023,02:09:30,0.000,0.0,0.0,0.0
20/09/2023,02:10:29,0.000,0.0,0.0,0.0
20/09/2023,02:11:29,0.001,0.0,0.0,0.0
20/09/2023,02:12:29,-0.000,0.0,0.0,0.0
20/09/2023,02:13:29,-0.000,0.0,0.0,0.0
20/09/2023,02:14:30,0.001,0.0,0.0,0.0
20/09/2023,02:15:29,0.000,0.0,0.0,0.0
20/09/2023,02:16:30,-0.001,0.0,0.0,0.0
20/09/2023,02:17:29,-0.000,0.0,0.0,0.0
20/09/2023,02:18:29,0.001,0.0,0.0,0.0
20/09/2023,02:19:30,0.000,0.0,0.0,0.0
20/09/2023,02:20:29,0.000,0.0,0.0,0.0
20/09/2023,02:21:29,0.001,0.0,0.0,0.0
20/09/2023,02:22:27,0.001,0.0,0.0,0.0
20/09/2023,02:23:28,0.000,0.0,0.0,0.0
20/09/2023,02:24:29,0.000,0.0,0.0,0.0
20/09/2023,02:25:29,0.001,0.0,0.0,0.0
20/09/2023,02:26:30,0.000,0.0,0.0,0.0
20/09/2023,02:27:29,0.000,0.0,0.0,0.0
20/09/2023,02:28:29,0.000,0.0,0.0,0.0
20/09/2023,02:29:29,0.001,0.0,0.0,0.0
20/09/2023,02:30:30,-0.001,0.0,0.0,0.0
20/09/2023,02:31:29,0.000,0.0,0.0,0.0
20/09/2023,02:32:29,0.000,0.0,0.0,0.0
20/09/2023,02:33:30,-0.001,0.0,0.0,0.0
20/09/2023,02:34:29,0.000,0.0,0.0,0.0
20/09/2023,02:35:29,0.000,0.0,0.0,0.0
20/09/2023,02:36:29,0.000,0.0,0.0,0.0
20/09/2023,02:37:30,0.000,0.0,0.0,0.0
20/09/2023,02:38:29,0.000,0.0,0.0,0.0
20/09/2023,02:39:29,-0.000,0.0,0.0,0.0
20/09/2023,02:40:30,0.001,0.0,0.0,0.0
20/09/2023,02:41:29,0.000,0.0,0.0,0.0
20/09/2023,02:42:29,0.000,0.0,0.0,0.0
20/09/2023,02:43:29,-0.001,0.0,0.0,0.0
20/09/2023,02:44:30,0.001,0.0,0.0,0.0
20/09/2023,02:45:29,0.000,0.0,0.0,0.0
20/09/2023,02:46:29,0.000,0.0,0.0,0.0
20/09/2023,02:47:31,0.001,0.0,0.0,0.0
20/09/2023,02:48:30,0.000,0.0,0.0,0.0
20/09/2023,02:49:29,0.000,0.0,0.0,0.0
20/09/2023,02:50:29,0.000,0.0,0.0,0.0
20/09/2023,02:51:30,-0.000,0.0,0.0,0.0
20/09/2023,02:52:29,-0.000,0.0,0.0,0.0
20/09/2023,02:53:29,-0.000,0.0,0.0,0.0
20/09/2023,02:54:29,-0.001,0.0,0.0,0.0
20/09/2023,02:55:30,0.000,0.0,0.0,0.0
20/09/2023,02:56:29,0.001,0.0,0.0,0.0
20/09/2023,02:57:30,0.000,0.0,0.0,0.0
20/09/2023,02:58:29,-0.001,0.0,0.0,0.0
20/09/2023,02:59:30,-0.000,0.0,0.0,0.0
20/09/2023,03:00:29,0.000,0.0,0.0,0.0
20/09/2023,03:01:30,0.001,0.0,0.0,0.0
20/09/2023,03:02:29,0.000,0.0,0.0,0.0
20/09/2023,03:03:29,0.001,0.0,0.0,0.0
20/09/2023,03:04:29,0.000,0.0,0.0,0.0
20/09/2023,03:05:30,-0.000,0.0,0.0,0.0
20/09/2023,03:06:30,0.001,0.0,0.0,0.0
20/09/2023,03:07:29,0.000,0.0,0.0,0.0
20/09/2023,03:08:30,0.000,0.0,0.0,0.0
20/09/2023,03:09:29,0.000,0.0,0.0,0.0
20/09/2023,03:10:29,0.000,0.0,0.0,0.0
20/09/2023,03:11:30,0.000,0.0,0.0,0.0
20/09/2023,03:12:29,0.001,0.0,0.0,0.0
20/09/2023,03:13:29,0.000,0.0,0.0,0.0
20/09/2023,03:14:30,0.000,0.0,0.0,0.0
20/09/2023,03:15:29,0.000,0.0,0.0,0.0
20/09/2023,03:16:29,0.000,0.0,0.0,0.0
20/09/2023,03:17:30,0.000,0.0,0.0,0.0
20/09/2023,03:18:29,-0.001,0.0,0.0,0.0
20/09/2023,03:19:29,0.000,0.0,0.0,0.0
20/09/2023,03:20:29,0.001,0.0,0.0,0.0
20/09/2023,03:21:29,0.000,0.0,0.0,0.0
20/09/2023,03:22:30,0.000,0.0,0.0,0.0
20/09/2023,03:23:29,0.001,0.0,0.0,0.0
20/09/2023,03:24:29,0.000,0.0,0.0,0.0
20/09/2023,03:25:29,0.000,0.0,0.0,0.0
20/09/2023,03:26:29,0.001,0.0,0.0,0.0
20/09/2023,03:27:29,-0.000,0.0,0.0,0.0
20/09/2023,03:28:30,0.001,0.0,0.0,0.0
20/09/2023,03:29:30,0.001,0.0,0.0,0.0
20/09/2023,03:30:29,0.000,0.0,0.0,0.0
20/09/2023,03:31:29,0.000,0.0,0.0,0.0
20/09/2023,03:32:30,0.000,0.0,0.0,0.0
20/09/2023,03:33:29,0.000,0.0,0.0,0.0
20/09/2023,03:34:29,0.000,0.0,0.0,0.0
20/09/2023,03:35:30,0.001,0.0,0.0,0.0
20/09/2023,03:36:29,0.000,0.0,0.0,0.0
20/09/2023,03:37:30,0.001,0.0,0.0,0.0
20/09/2023,03:38:29,0.000,0.0,0.0,0.0
20/09/2023,03:39:29,0.000,0.0,0.0,0.0
20/09/2023,03:40:29,0.001,0.0,0.0,0.0
20/09/2023,03:41:30,0.000,0.0,0.0,0.0
20/09/2023,03:42:29,0.000,0.0,0.0,0.0
20/09/2023,03:43:29,-0.001,0.0,0.0,0.0
20/09/2023,03:44:30,0.001,0.0,0.0,0.0
20/09/2023,03:45:29,0.000,0.0,0.0,0.0
20/09/2023,03:46:30,0.000,0.0,0.0,0.0
20/09/2023,03:47:29,0.001,0.0,0.0,0.0
20/09/2023,03:48:29,0.000,0.0,0.0,0.0
20/09/2023,03:49:30,0.001,0.0,0.0,0.0
20/09/2023,03:50:29,0.000,0.0,0.0,0.0
20/09/2023,03:51:29,-0.001,0.0,0.0,0.0
20/09/2023,03:52:29,0.000,0.0,0.0,0.0
20/09/2023,03:53:29,0.001,0.0,0.0,0.0
20/09/2023,03:54:29,0.000,0.0,0.0,0.0
20/09/2023,03:55:29,-0.001,0.0,0.0,0.0
20/09/2023,03:56:29,0.000,0.0,0.0,0.0
20/09/2023,03:57:30,0.000,0.0,0.0,0.0
20/09/2023,03:58:29,-0.000,0.0,0.0,0.0
20/09/2023,03:59:29,0.000,0.0,0.0,0.0
20/09/2023,04:00:27,-0.000,0.0,0.0,0.0
20/09/2023,04:01:29,0.000,0.0,0.0,0.0
20/09/2023,04:02:30,0.001,0.0,0.0,0.0
20/09/2023,04:03:29,0.000,0.0,0.0,0.0
20/09/2023,04:04:29,0.000,0.0,0.0,0.0
20/09/2023,04:05:30,0.000,0.0,0.0,0.0
20/09/2023,04:06:30,0.001,0.0,0.0,0.0
20/09/2023,04:07:30,0.001,0.0,0.0,0.0
20/09/2023,04:08:29,0.000,0.0,0.0,0.0
20/09/2023,04:09:29,0.000,0.0,0.0,0.0
20/09/2023,04:10:30,0.000,0.0,0.0,0.0
20/09/2023,04:11:29,0.000,0.0,0.0,0.0
20/09/2023,04:12:30,0.000,0.0,0.0,0.0
20/09/2023,04:13:29,0.001,0.0,0.0,0.0
20/09/2023,04:14:29,0.000,0.0,0.0,0.0
20/09/2023,04:15:30,0.000,0.0,0.0,0.0
20/09/2023,04:16:30,0.001,0.0,0.0,0.0
20/09/2023,04:17:29,0.000,0.0,0.0,0.0
20/09/2023,04:18:29,-0.001,0.0,0.0,0.0
20/09/2023,04:19:29,-0.001,0.0,0.0,0.0
20/09/2023,04:20:29,-0.001,0.0,0.0,0.0
20/09/2023,04:21:30,-0.001,0.0,0.0,0.0
20/09/2023,04:22:29,0.000,0.0,0.0,0.0
20/09/2023,04:23:29,-0.001,0.0,0.0,0.0
20/09/2023,04:24:30,0.000,0.0,0.0,0.0
20/09/2023,04:25:29,0.000,0.0,0.0,0.0
20/09/2023,04:26:29,0.000,0.0,0.0,0.0
20/09/2023,04:27:30,0.000,0.0,0.0,0.0
20/09/2023,04:28:30,0.000,0.0,0.0,0.0
20/09/2023,04:29:33,0.000,0.0,0.0,0.0
20/09/2023,04:30:30,-0.001,0.0,0.0,0.0
20/09/2023,04:31:29,0.000,0.0,0.0,0.0
20/09/2023,04:32:30,0.001,0.0,0.0,0.0
20/09/2023,04:33:29,-0.000,0.0,0.0,0.0
20/09/2023,04:34:29,0.000,0.0,0.0,0.0
20/09/2023,04:35:30,-0.001,0.0,0.0,0.0
20/09/2023,04:36:31,0.001,0.0,0.0,0.0
20/09/2023,04:37:30,-0.000,0.0,0.0,0.0
20/09/2023,04:38:29,0.000,0.0,0.0,0.0
20/09/2023,04:39:29,0.001,0.0,0.0,0.0
20/09/2023,04:40:30,0.001,0.0,0.0,0.0
20/09/2023,04:41:30,-0.000,0.0,0.0,0.0
20/09/2023,04:42:30,0.000,0.0,0.0,0.0
20/09/2023,04:43:30,0.000,0.0,0.0,0.0
20/09/2023,04:44:29,0.000,0.0,0.0,0.0
20/09/2023,04:45:29,0.000,0.0,0.0,0.0
20/09/2023,04:46:30,0.000,0.0,0.0,0.0
20/09/2023,04:47:29,0.000,0.0,0.0,0.0
20/09/2023,04:48:29,0.001,0.0,0.0,0.0
20/09/2023,04:49:30,0.000,0.0,0.0,0.0
20/09/2023,04:50:29,0.000,0.0,0.0,0.0
20/09/2023,04:51:29,0.000,0.0,0.0,0.0
20/09/2023,04:52:30,-0.000,0.0,0.0,0.0
20/09/2023,04:53:29,-0.000,0.0,0.0,0.0
20/09/2023,04:54:29,0.000,0.0,0.0,0.0
20/09/2023,04:55:30,0.000,0.0,0.0,0.0
20/09/2023,04:56:29,0.000,0.0,0.0,0.0
20/09/2023,04:57:30,0.001,0.0,0.0,0.0
20/09/2023,04:58:29,0.000,0.0,0.0,0.0
20/09/2023,04:59:28,0.000,0.0,0.0,0.0
20/09/2023,05:00:51,-0.000,0.0,0.0,0.0
20/09/2023,05:01:29,0.000,0.0,0.0,0.0
20/09/2023,05:02:30,0.000,0.0,0.0,0.0
20/09/2023,05:03:30,0.000,0.0,0.0,0.0
20/09/2023,05:04:30,0.000,0.0,0.0,0.0
20/09/2023,05:05:29,0.000,0.0,0.0,0.0
20/09/2023,05:06:30,0.001,0.0,0.0,0.0
20/09/2023,05:07:30,0.001,0.0,0.0,0.0
20/09/2023,05:08:29,0.000,0.0,0.0,0.0
20/09/2023,05:09:29,0.001,0.0,0.0,0.0
20/09/2023,05:10:30,0.001,0.0,0.0,0.0
20/09/2023,05:11:29,-0.001,0.0,0.0,0.0
20/09/2023,05:12:31,-0.000,0.0,0.0,0.0
20/09/2023,05:13:29,0.000,0.0,0.0,0.0
20/09/2023,05:14:29,0.001,0.0,0.0,0.0
20/09/2023,05:15:30,0.000,0.0,0.0,0.0
20/09/2023,05:16:30,-0.000,0.0,0.0,0.0
20/09/2023,05:17:30,0.000,0.0,0.0,0.0
20/09/2023,05:18:29,0.000,0.0,0.0,0.0
20/09/2023,05:19:30,0.000,0.0,0.0,0.0
20/09/2023,05:20:29,0.001,0.0,0.0,0.0
20/09/2023,05:21:30,0.001,0.0,0.0,0.0
20/09/2023,05:22:29,-0.000,0.0,0.0,0.0
20/09/2023,05:23:29,0.000,0.0,0.0,0.0
20/09/2023,05:24:30,0.000,0.0,0.0,0.0
20/09/2023,05:25:29,-0.000,0.0,0.0,0.0
20/09/2023,05:26:29,-0.000,0.0,0.0,0.0
20/09/2023,05:27:30,0.001,0.0,0.0,0.0
20/09/2023,05:28:29,0.001,0.0,0.0,0.0
20/09/2023,05:29:30,0.001,0.0,0.0,0.0
20/09/2023,05:30:30,0.002,0.0,0.0,0.0
20/09/2023,05:31:29,-0.000,0.0,0.0,0.0
20/09/2023,05:32:30,0.001,0.0,0.0,0.0
20/09/2023,05:33:29,0.001,0.0,0.0,0.0
20/09/2023,05:34:30,0.001,0.0,0.0,0.0
20/09/2023,05:35:29,0.001,0.0,0.0,0.0
20/09/2023,05:36:29,0.001,0.0,0.0,0.0
20/09/2023,05:37:30,0.001,0.0,0.0,0.0
20/09/2023,05:38:30,0.001,0.0,0.0,0.0
20/09/2023,05:39:30,0.001,0.0,0.0,0.0
20/09/2023,05:40:30,0.002,0.0,0.0,0.0
20/09/2023,05:41:30,0.002,0.0,0.0,0.0
20/09/2023,05:42:30,0.002,0.0,0.0,0.0
20/09/2023,05:43:30,0.002,0.0,0.0,0.0
20/09/2023,05:44:29,0.001,0.0,0.0,0.0
20/09/2023,05:45:30,0.003,0.0,0.0,0.0
20/09/2023,05:46:30,0.002,0.0,0.0,0.0
20/09/2023,05:47:30,0.002,0.0,0.0,0.0
20/09/2023,05:48:29,0.003,0.0,0.0,0.0
20/09/2023,05:49:29,0.003,0.0,0.0,0.0
20/09/2023,05:50:30,0.002,0.0,0.0,0.0
20/09/2023,05:51:29,0.004,0.0,0.0,0.0
20/09/2023,05:52:30,0.003,0.0,0.0,0.0
20/09/2023,05:53:29,0.004,0.0,0.0,0.0
20/09/2023,05:54:29,0.003,0.0,0.0,0.0
20/09/2023,05:55:30,0.004,0.0,0.0,0.0
20/09/2023,05:56:29,0.003,0.0,0.0,0.0
20/09/2023,05:57:30,0.002,0.0,0.0,0.0
20/09/2023,05:58:29,0.003,0.0,0.0,0.0
20/09/2023,05:59:30,0.003,0.0,0.0,0.0
20/09/2023,06:00:29,0.004,0.0,0.0,0.0
20/09/2023,06:01:29,0.004,0.0,0.0,0.0
20/09/2023,06:02:30,0.005,0.0,0.0,0.0
20/09/2023,06:03:29,0.004,0.0,0.0,0.0
20/09/2023,06:04:29,0.005,0.0,0.0,0.0
20/09/2023,06:05:30,0.005,0.0,0.0,0.0
20/09/2023,06:06:30,0.005,0.0,0.0,0.0
20/09/2023,06:07:29,0.006,0.0,0.0,0.0
20/09/2023,06:08:29,0.006,0.0,0.0,0.0
20/09/2023,06:09:30,0.006,0.0,0.0,0.0
20/09/2023,06:10:29,0.007,0.0,0.0,0.0
20/09/2023,06:11:30,0.008,0.0,0.0,0.0
20/09/2023,06:12:30,0.008,0.0,0.001,0.001
20/09/2023,06:13:30,0.010,0.0,0.001,0.0
20/09/2023,06:14:29,0.008,0.0,0.001,0.0
20/09/2023,06:15:30,0.008,0.0,0.001,0.0
20/09/2023,06:16:29,0.009,0.0,0.001,0.0
20/09/2023,06:17:30,0.008,0.0,0.001,0.0
20/09/2023,06:18:29,0.007,0.0,0.001,0.0
20/09/2023,06:19:29,0.007,0.0,0.001,0.0
20/09/2023,06:20:29,0.008,0.0,0.002,0.001
20/09/2023,06:21:29,0.010,0.0,0.002,0.0
20/09/2023,06:22:30,0.009,0.0,0.002,0.0
20/09/2023,06:23:30,0.009,0.0,0.002,0.0
20/09/2023,06:24:30,0.008,0.0,0.002,0.0
20/09/2023,06:25:29,0.007,0.0,0.002,0.0
20/09/2023,06:26:29,0.009,0.0,0.003,0.001
20/09/2023,06:27:30,0.009,0.0,0.003,0.0
20/09/2023,06:28:28,0.010,0.0,0.003,0.0
20/09/2023,06:29:28,0.011,0.0,0.003,0.0
20/09/2023,06:30:29,0.010,0.0,0.003,0.0
20/09/2023,06:31:30,0.010,0.0,0.003,0.0
20/09/2023,06:32:29,0.010,0.0,0.003,0.0
20/09/2023,06:33:29,0.016,0.0,0.004,0.001
20/09/2023,06:34:30,0.012,0.0,0.004,0.0
20/09/2023,06:35:29,0.014,0.0,0.004,0.0
20/09/2023,06:36:29,0.015,0.0,0.004,0.0
20/09/2023,06:37:30,0.014,0.0,0.005,0.001
20/09/2023,06:38:29,0.014,0.0,0.005,0.0
20/09/2023,06:39:29,0.014,0.0,0.005,0.0
20/09/2023,06:40:30,0.017,0.0,0.005,0.0
20/09/2023,06:41:29,0.017,0.0,0.006,0.001
20/09/2023,06:42:29,0.015,0.0,0.006,0.0
20/09/2023,06:43:30,0.018,0.0,0.006,0.0
20/09/2023,06:44:29,0.018,0.0,0.006,0.0
20/09/2023,06:45:30,0.018,0.0,0.007,0.001
20/09/2023,06:46:28,0.019,0.0,0.007,0.0
20/09/2023,06:47:28,0.020,0.0,0.007,0.0
20/09/2023,06:48:30,0.021,0.0,0.008,0.001
20/09/2023,06:49:30,0.024,0.0,0.008,0.0
20/09/2023,06:50:29,0.026,0.0,0.008,0.0
20/09/2023,06:51:30,0.023,0.0,0.009,0.001
20/09/2023,06:52:30,0.026,0.0,0.009,0.0
20/09/2023,06:53:30,0.023,0.0,0.01,0.001
20/09/2023,06:54:29,0.025,0.0,0.01,0.0
20/09/2023,06:55:29,0.024,0.0,0.011,0.001
20/09/2023,06:56:30,0.030,0.0,0.011,0.0
20/09/2023,06:57:30,0.029,0.0,0.011,0.0
20/09/2023,06:58:30,0.029,0.0,0.012,0.001
20/09/2023,06:59:30,0.029,0.0,0.012,0.0
20/09/2023,07:00:29,0.026,0.0,0.013,0.001
20/09/2023,07:01:29,0.032,0.0,0.013,0.0
20/09/2023,07:02:30,0.038,0.0,0.014,0.001
20/09/2023,07:03:29,0.040,0.0,0.015,0.001
20/09/2023,07:04:30,0.038,0.0,0.015,0.0
20/09/2023,07:05:29,0.045,0.0,0.016,0.001
20/09/2023,07:06:30,0.047,0.0,0.017,0.001
20/09/2023,07:07:29,0.056,0.0,0.018,0.001
20/09/2023,07:08:30,0.062,0.0,0.019,0.001
20/09/2023,07:09:30,0.057,0.0,0.02,0.001
20/09/2023,07:10:30,0.057,0.0,0.02,0.0
20/09/2023,07:11:29,0.064,0.0,0.022,0.002
20/09/2023,07:12:29,0.055,0.0,0.023,0.001
20/09/2023,07:13:30,0.060,0.0,0.023,0.0
20/09/2023,07:14:29,0.063,0.0,0.024,0.001
20/09/2023,07:15:29,0.073,0.0,0.026,0.002
20/09/2023,07:16:28,0.066,0.0,0.027,0.001
20/09/2023,07:17:28,0.078,0.0,0.028,0.001
20/09/2023,07:18:30,0.073,0.0,0.029,0.001
20/09/2023,07:19:29,0.086,0.0,0.031,0.002
20/09/2023,07:20:30,0.084,0.0,0.032,0.001
20/09/2023,07:21:30,0.073,0.0,0.033,0.001
20/09/2023,07:22:30,0.060,0.0,0.034,0.001
20/09/2023,07:23:30,0.051,0.0,0.035,0.001
20/09/2023,07:24:30,0.049,0.0,0.036,0.001
20/09/2023,07:25:30,0.048,0.0,0.037,0.001
20/09/2023,07:26:32,0.041,0.0,0.038,0.001
20/09/2023,07:27:30,0.037,0.0,0.038,0.0
20/09/2023,07:28:30,0.032,0.0,0.039,0.001
20/09/2023,07:29:30,0.032,0.0,0.039,0.0
20/09/2023,07:30:30,0.030,0.0,0.04,0.001
20/09/2023,07:31:30,0.032,0.0,0.04,0.0
20/09/2023,07:32:30,0.030,0.0,0.041,0.001
20/09/2023,07:33:30,0.031,0.0,0.042,0.001
20/09/2023,07:34:30,0.029,0.0,0.042,0.0
20/09/2023,07:35:30,0.027,0.0,0.042,0.0
20/09/2023,07:36:30,0.030,0.0,0.043,0.001
20/09/2023,07:37:29,0.036,0.0,0.043,0.0
20/09/2023,07:38:29,0.033,0.0,0.044,0.001
20/09/2023,07:39:30,0.033,0.0,0.045,0.001
20/09/2023,07:40:30,0.029,0.0,0.045,0.0
20/09/2023,07:41:30,0.029,0.0,0.046,0.001
20/09/2023,07:42:30,0.034,0.0,0.046,0.0
20/09/2023,07:43:30,0.035,0.0,0.047,0.001
20/09/2023,07:44:30,0.036,0.0,0.047,0.0
20/09/2023,07:45:30,0.039,0.0,0.048,0.001
20/09/2023,07:46:29,0.035,0.0,0.049,0.001
20/09/2023,07:47:30,0.038,0.0,0.049,0.0
20/09/2023,07:48:30,0.045,0.0,0.05,0.001
20/09/2023,07:49:30,0.049,0.0,0.051,0.001
20/09/2023,07:50:30,0.054,0.0,0.052,0.001
20/09/2023,07:51:30,0.061,0.0,0.052,0.0
20/09/2023,07:52:30,0.076,0.0,0.054,0.002
20/09/2023,07:53:29,0.084,0.0,0.055,0.001
20/09/2023,07:54:28,0.093,0.0,0.056,0.001
20/09/2023,07:55:28,0.086,0.0,0.058,0.002
20/09/2023,07:56:29,0.074,0.0,0.059,0.001
20/09/2023,07:57:30,0.071,0.0,0.06,0.001
20/09/2023,07:58:30,0.067,0.0,0.062,0.002
20/09/2023,07:59:30,0.060,0.0,0.063,0.001
20/09/2023,08:00:29,0.057,0.0,0.064,0.001
20/09/2023,08:01:29,0.062,0.0,0.065,0.001
20/09/2023,08:02:30,0.068,0.0,0.066,0.001
20/09/2023,08:03:29,0.062,0.0,0.067,0.001
20/09/2023,08:04:29,0.063,0.0,0.068,0.001
20/09/2023,08:05:30,0.071,0.0,0.069,0.001
20/09/2023,08:06:30,0.083,0.0,0.07,0.001
20/09/2023,08:07:30,0.105,0.0,0.072,0.002
20/09/2023,08:08:31,0.111,0.0,0.074,0.002
20/09/2023,08:09:30,0.093,0.0,0.075,0.001
20/09/2023,08:10:30,0.098,0.0,0.077,0.002
20/09/2023,08:11:30,0.100,0.0,0.078,0.001
20/09/2023,08:12:30,0.103,0.0,0.08,0.002
20/09/2023,08:13:28,0.131,0.0,0.082,0.002
20/09/2023,08:14:28,0.129,0.0,0.084,0.002
20/09/2023,08:15:30,0.116,0.0,0.086,0.002
20/09/2023,08:16:30,0.111,0.0,0.088,0.002
20/09/2023,08:17:30,0.128,0.0,0.09,0.002
20/09/2023,08:18:30,0.153,0.0,0.092,0.002
20/09/2023,08:19:30,0.171,0.0,0.095,0.003
20/09/2023,08:20:30,0.188,0.0,0.098,0.003
20/09/2023,08:21:30,0.199,0.0,0.102,0.004
20/09/2023,08:22:30,0.207,0.0,0.105,0.003
20/09/2023,08:23:30,0.213,0.0,0.108,0.003
20/09/2023,08:24:30,0.238,1.0,0.112,0.004
20/09/2023,08:25:30,0.197,0.0,0.116,0.004
20/09/2023,08:26:29,0.230,1.0,0.119,0.003
20/09/2023,08:27:30,0.231,1.0,0.123,0.004
20/09/2023,08:28:30,0.239,1.0,0.127,0.004
20/09/2023,08:29:30,0.285,1.0,0.131,0.004
20/09/2023,08:30:29,0.331,1.0,0.137,0.006
20/09/2023,08:31:30,0.328,1.0,0.142,0.005
20/09/2023,08:32:30,0.301,1.0,0.147,0.005
20/09/2023,08:33:30,0.345,1.0,0.153,0.006
20/09/2023,08:34:30,0.338,1.0,0.158,0.005
20/09/2023,08:35:30,0.346,1.0,0.164,0.006
20/09/2023,08:36:28,0.289,1.0,0.169,0.005
20/09/2023,08:37:28,0.240,1.0,0.174,0.005
20/09/2023,08:38:30,0.197,0.0,0.177,0.003
20/09/2023,08:39:30,0.178,0.0,0.181,0.004
20/09/2023,08:40:30,0.177,0.0,0.183,0.002
20/09/2023,08:41:29,0.153,0.0,0.186,0.003
20/09/2023,08:42:30,0.168,0.0,0.189,0.003
20/09/2023,08:43:29,0.188,0.0,0.192,0.003
20/09/2023,08:44:28,0.188,0.0,0.195,0.003
20/09/2023,08:45:28,0.249,1.0,0.198,0.003
20/09/2023,08:46:30,0.242,1.0,0.203,0.005
20/09/2023,08:47:30,0.209,0.0,0.207,0.004
20/09/2023,08:48:30,0.183,0.0,0.21,0.003
20/09/2023,08:49:29,0.182,0.0,0.213,0.003
20/09/2023,08:50:30,0.162,0.0,0.216,0.003
20/09/2023,08:51:30,0.136,0.0,0.218,0.002
20/09/2023,08:52:30,0.121,0.0,0.22,0.002
20/09/2023,08:53:30,0.124,0.0,0.222,0.002
20/09/2023,08:54:30,0.120,0.0,0.224,0.002
20/09/2023,08:55:29,0.119,0.0,0.226,0.002
20/09/2023,08:56:31,0.136,0.0,0.229,0.003
20/09/2023,08:57:30,0.167,0.0,0.231,0.002
20/09/2023,08:58:30,0.158,0.0,0.234,0.003
20/09/2023,08:59:30,0.163,0.0,0.236,0.002
20/09/2023,09:00:30,0.172,0.0,0.239,0.003
20/09/2023,09:01:30,0.193,0.0,0.242,0.003
20/09/2023,09:02:30,0.214,0.0,0.246,0.004
20/09/2023,09:03:30,0.215,0.0,0.249,0.003
20/09/2023,09:04:29,0.215,0.0,0.253,0.004
20/09/2023,09:05:30,0.229,1.0,0.257,0.004
20/09/2023,09:06:30,0.210,0.0,0.26,0.003
20/09/2023,09:07:30,0.214,0.0,0.264,0.004
20/09/2023,09:08:30,0.193,0.0,0.267,0.003
20/09/2023,09:09:30,0.159,0.0,0.27,0.003
20/09/2023,09:10:30,0.172,0.0,0.273,0.003
20/09/2023,09:11:30,0.175,0.0,0.276,0.003
20/09/2023,09:12:31,0.204,0.0,0.279,0.003
20/09/2023,09:13:30,0.176,0.0,0.282,0.003
20/09/2023,09:14:30,0.194,0.0,0.285,0.003
20/09/2023,09:15:30,0.185,0.0,0.288,0.003
20/09/2023,09:16:30,0.167,0.0,0.291,0.003
20/09/2023,09:17:30,0.168,0.0,0.294,0.003
20/09/2023,09:18:31,0.162,0.0,0.297,0.003
20/09/2023,09:19:30,0.161,0.0,0.299,0.002
20/09/2023,09:20:30,0.163,0.0,0.302,0.003
20/09/2023,09:21:30,0.143,0.0,0.305,0.003
20/09/2023,09:22:28,0.143,0.0,0.307,0.002
20/09/2023,09:23:28,0.147,0.0,0.309,0.002
20/09/2023,09:24:30,0.170,0.0,0.312,0.003
20/09/2023,09:25:30,0.149,0.0,0.315,0.003
20/09/2023,09:26:30,0.156,0.0,0.317,0.002
20/09/2023,09:27:30,0.211,0.0,0.321,0.004
20/09/2023,09:28:30,0.165,0.0,0.324,0.003
20/09/2023,09:29:30,0.152,0.0,0.326,0.002
20/09/2023,09:30:30,0.159,0.0,0.329,0.003
20/09/2023,09:31:30,0.248,1.0,0.332,0.003
20/09/2023,09:32:30,0.297,1.0,0.337,0.005
20/09/2023,09:33:30,0.256,1.0,0.341,0.004
20/09/2023,09:34:30,0.210,0.0,0.345,0.004
20/09/2023,09:35:30,0.164,0.0,0.348,0.003
20/09/2023,09:36:30,0.143,0.0,0.351,0.003
20/09/2023,09:37:30,0.152,0.0,0.353,0.002
20/09/2023,09:38:30,0.181,0.0,0.356,0.003
20/09/2023,09:39:30,0.197,0.0,0.359,0.003
20/09/2023,09:40:30,0.199,0.0,0.363,0.004
20/09/2023,09:41:30,0.152,0.0,0.366,0.003
20/09/2023,09:42:28,0.143,0.0,0.368,0.002
20/09/2023,09:43:28,0.136,0.0,0.37,0.002
20/09/2023,09:44:30,0.179,0.0,0.373,0.003
20/09/2023,09:45:30,0.156,0.0,0.376,0.003
20/09/2023,09:46:31,0.158,0.0,0.378,0.002
20/09/2023,09:47:31,0.146,0.0,0.381,0.003
20/09/2023,09:48:30,0.129,0.0,0.383,0.002
20/09/2023,09:49:30,0.135,0.0,0.385,0.002
20/09/2023,09:50:30,0.115,0.0,0.387,0.002
20/09/2023,09:51:30,0.135,0.0,0.389,0.002
20/09/2023,09:52:30,0.148,0.0,0.392,0.003
20/09/2023,09:53:31,0.133,0.0,0.394,0.002
20/09/2023,09:54:30,0.140,0.0,0.396,0.002
20/09/2023,09:55:30,0.173,0.0,0.399,0.003
20/09/2023,09:56:30,0.198,0.0,0.402,0.003
20/09/2023,09:57:30,0.179,0.0,0.405,0.003
20/09/2023,09:58:30,0.203,0.0,0.409,0.004
20/09/2023,09:59:31,0.254,1.0,0.413,0.004
20/09/2023,10:00:31,0.253,1.0,0.417,0.004
20/09/2023,10:01:30,0.260,1.0,0.421,0.004
20/09/2023,10:02:30,0.234,1.0,0.425,0.004
20/09/2023,10:03:28,0.257,1.0,0.429,0.004
20/09/2023,10:04:28,0.235,1.0,0.433,0.004
20/09/2023,10:05:30,0.261,1.0,0.437,0.004
20/09/2023,10:06:30,0.220,1.0,0.442,0.005